Santiago, Dominican Republic

9:02 AM AST on June 28, 2017 (GMT -0400)
Cibao International

Weather History for MDST - January, 2014

Change the Weather History Date:

Tuesday, January 21, 2014

  Actual Average Record
Temperature  
Mean Temperature 77 °F -  
Max Temperature 86 °F 85 °F 87 °F (1998)
Min Temperature 68 °F 65 °F 58 °F (2017)
Cooling Degree Days 12    
Growing Degree Days 27 (Base 50)    
Moisture  
Dew Point 67 °F    
Average Humidity 79    
Maximum Humidity 100    
Minimum Humidity 36    
Precipitation  
Precipitation 0.00 in 0.06 in - ()
Sea Level Pressure  
Sea Level Pressure 29.98 in    
Wind  
Wind Speed 7 mph ()    
Max Wind Speed 21 mph    
Max Gust Speed -    
Visibility 5.3 miles    
Events      
Averages and records for this station are not official NWS values.
T = Trace of Precipitation, MM = Missing Value Source: Averaged Metar Reports

Daily Weather History Graph

Daily Weather History Graph

Search for Another Location

Airport or City:

Trip Planner

Search our weather history database for the weather conditions in past years. The results will help you decide how hot, cold, wet, or windy it might be!

Date:

Astronomy

Jan. 21, 2014 Rise Set
Actual Time 7:19 AM AST 6:28 PM AST
Civil Twilight 6:56 AM AST 6:52 PM AST
Nautical Twilight 6:29 AM AST 7:18 PM AST
Astronomical Twilight 6:03 AM AST 7:45 PM AST
Moon 11:08 PM AST (1/21) 10:33 AM AST (1/21)
Length of Visible Light 11h 55m
Length of Day
11h 09m
Waning Gibbous, 75% of the Moon is Illuminated
Jan 21
Waning Gibbous
Jan 24
Last Quarter
Jan 30
New
Feb 6
First Quarter
Feb 14
Full

Hourly Weather History & Observations

Time (AST) Temp. Heat Index Dew Point Humidity Pressure Visibility Wind Dir Wind Speed Gust Speed Precip Events Conditions
12:00 AM 73.4 °F - 69.8 °F 88% 30.04 in 6.2 mi SE 6.9 mph - N/A   Scattered Clouds
1:00 AM 71.6 °F - 71.6 °F 100% 30.01 in 6.2 mi SE 6.9 mph - N/A   Scattered Clouds
2:00 AM 71.6 °F - 69.8 °F 94% 30.01 in 6.2 mi ESE 6.9 mph - N/A   Scattered Clouds
3:00 AM 71.6 °F - 69.8 °F 94% 29.98 in 6.2 mi ESE 8.1 mph - N/A   Scattered Clouds
4:00 AM 71.6 °F - 69.8 °F 94% 29.98 in 6.2 mi ESE 5.8 mph - N/A   Scattered Clouds
5:00 AM 73 °F - 70 °F 89% 30.05 in 5 mi South 4.5 mph - -   Haze
5:00 AM 69.8 °F - 69.8 °F 100% 29.98 in 6.2 mi SE 6.9 mph - N/A   Mostly Cloudy
6:00 AM 69.8 °F - 69.8 °F 100% 29.98 in 3.1 mi Calm Calm - N/A   Mostly Cloudy
7:00 AM 69.8 °F - 69.8 °F 100% 29.98 in 3.1 mi South 4.6 mph - N/A   Mostly Cloudy
8:00 AM 69 °F - 69 °F 100% 30.02 in 2 mi Calm Calm - -   Mist
8:00 AM 69.8 °F - 69.8 °F 100% 30.01 in 1.9 mi Calm Calm - N/A   Mostly Cloudy
9:00 AM 71.6 °F - 69.8 °F 94% 30.04 in 1.9 mi ESE 5.8 mph - N/A   Overcast
10:00 AM 75.2 °F - 69.8 °F 83% 30.04 in 3.1 mi SE 10.4 mph - N/A   Haze
11:00 AM 78.8 °F - 69.8 °F 74% 30.04 in 6.2 mi SE 6.9 mph - N/A   Mostly Cloudy
12:00 PM 80.6 °F 83.2 °F 68.0 °F 65% 30.01 in 6.2 mi SE 9.2 mph - N/A   Partly Cloudy
1:00 PM 86.0 °F 91.8 °F 71.6 °F 62% 30.01 in 6.2 mi ESE 11.5 mph - N/A   Scattered Clouds
2:00 PM 84.2 °F 85.6 °F 64.4 °F 51% 29.92 in 6.2 mi SE 16.1 mph - N/A   Partly Cloudy
3:00 PM 86.0 °F 86.6 °F 62.6 °F 45% 29.89 in 6.2 mi SE 20.7 mph - N/A   Partly Cloudy
4:00 PM 86.0 °F 86.6 °F 62.6 °F 45% 29.86 in 6.2 mi ESE 12.7 mph - N/A   Partly Cloudy
5:00 PM 84.2 °F 84.4 °F 60.8 °F 45% 29.86 in 6.2 mi ESE 15.0 mph - N/A   Partly Cloudy
6:00 PM - - - N/A% - 6.2 mi North - - N/A   Partly Cloudy
7:00 PM 78.8 °F - 50.0 °F 36% 29.92 in 6.2 mi SE 12.7 mph - N/A   Partly Cloudy
8:00 PM 77.0 °F - 66.2 °F 69% 29.92 in 6.2 mi SE 11.5 mph - N/A   Partly Cloudy
9:00 PM 75.2 °F - 66.2 °F 73% 29.95 in 6.2 mi East 6.9 mph - N/A   Partly Cloudy
10:00 PM 73.4 °F - 68.0 °F 83% 29.98 in 6.2 mi ESE 8.1 mph - N/A   Partly Cloudy
11:00 PM 71.6 °F - 66.2 °F 83% 29.98 in 6.2 mi ESE 6.9 mph - N/A   Partly Cloudy